[[{"header":{"parameterUnit":"m.s-1","parameterCategory":2,"la1":30.2991,"la2":30.254,"lo1":-89.0895,"lo2":-89.0444,"dy":0.0017,"dx":0.0017,"nx":28,"ny":28,"refTime":"2024-05-20T21:00:00:Z","depth":"0","parameterNumber":2,"parameterNumberName":"U-component_of_CURRENTS"},"data":[0,0,0,0,0,0,0,0,0,0,0,0,0,0,0,0,0,0,0,0,0,0,0,0,0,0,0,0,0,0,0,0,0,0,0,0,0,0,0,0,0,0,0,0,0,0,0,0,0,0,0,0,0,0,0,0,0,0,0.1965,0.1966,0,0.2036,0.2036,0.2037,0.2047,0.2047,0.2046,0.2046,0.2074,0.2076,0.2077,0,0,0,0,0,0,0,0,0,0,0,0,0,0.1893,0.1893,0.1965,0.1966,0.1967,0.2036,0.2036,0.2037,0.2047,0.2047,0.2046,0.2046,0.2074,0.2075,0.2077,0,0,0,0,0,0,0,0,0,0,0,0,0,0.1938,0.1894,0.1965,0.1982,0.1984,0.2035,0.2037,0.2038,0.2048,0.2047,0.2046,0.2045,0.2073,0.2075,0.2077,0.2104,0,0,0.2083,0.2084,0,0,0,0,0,0,0,0,0.1936,0.1941,0.1978,0.1981,0.1983,0.2033,0.2022,0.2058,0.2048,0.2022,0.2046,0.2045,0.2058,0.2061,0.2075,0.2106,0.2107,0.2083,0.2084,0.2085,0.2085,0,0,0,0,0,0,0,0.1932,0.1938,0.1992,0.1979,0.1983,0.2004,0.2009,0.2029,0.2042,0.2024,0.2025,0.2036,0.2059,0.2073,0.2076,0.2107,0.2083,0.2085,0.2086,0.2087,0.2236,0.2239,0,0,0,0,0,0,0.1925,0.1935,0.199,0.1994,0.1959,0.2006,0.2011,0.2017,0.2043,0.2046,0.2036,0.2036,0.207,0.2073,0.2077,0.216,0.2085,0.2087,0.2088,0.2233,0.2237,0.224,0,0,0,0,0,0,0.1923,0.1929,0.1987,0.1967,0.1976,0.2007,0.2014,0.2019,0.2035,0.2052,0.2055,0.2048,0.207,0.2074,0.2124,0.2159,0.2088,0.2089,0.223,0.2234,0.2238,0.2295,0,0,0,0,0,0,0.192,0.1927,0.1932,0.1967,0.1977,0.2028,0.2015,0.2021,0.2043,0.2043,0.2064,0.2065,0.207,0.2121,0.2126,0.216,0.2091,0.2226,0.2232,0.2237,0.229,0.2301,0.231,0,0,0,0,0,0.1917,0.1929,0.1932,0.1939,0.1981,0.2029,0.2037,0.2055,0.2044,0.2064,0.2089,0.2065,0.2158,0.2125,0.213,0.2166,0.2224,0.223,0.2236,0.2285,0.2298,0.231,0,0,0,0,0,0,0.1913,0.1933,0.1936,0.1956,0.1993,0.2031,0.2051,0.2059,0.2094,0.2093,0.2099,0.2105,0.217,0.2164,0.2127,0.2229,0.2188,0.2196,0.2223,0.2236,0.2246,0.2268,0.2092,0,0,0,0,0,0.1911,0.1915,0.1952,0.1971,0.1989,0.2019,0.2039,0.2054,0.2088,0.2102,0.2121,0.2151,0.2201,0.2213,0.2254,0.2297,0.2303,0.2327,0.2337,0.2345,0.237,0.2421,0.2438,0.2261,0.2261,0.2261,0,0,0.1915,0.1927,0.1931,0.1969,0.1996,0.2043,0.2029,0.2068,0.2113,0.21,0.2164,0.2192,0.2226,0.2293,0.2318,0.2286,0.2397,0.2353,0.236,0.2381,0.2429,0.2446,0.2461,0.2265,0.2264,0.2264,0,0,0.1945,0.1939,0.1965,0.1993,0.2036,0.206,0.2071,0.2118,0.2142,0.2206,0.2224,0.2287,0.2328,0.2382,0.2409,0.2503,0.2461,0.2494,0.2547,0.2596,0.261,0.2623,0.2634,0.2648,0.2484,0.2484,0.2484,0,0.1962,0.1993,0.1985,0.2027,0.2059,0.2069,0.2126,0.2157,0.2217,0.2248,0.2234,0.2352,0.2387,0.2482,0.2528,0.2528,0.2522,0.2489,0.2607,0.262,0.2633,0.2641,0.2655,0.2487,0.2487,0.2487,0.2486,0,0.2022,0.2048,0.2069,0.2118,0.2148,0.2197,0.2237,0.2272,0.2293,0.2327,0.2419,0.2474,0.2538,0.2564,0.258,0.2685,0.264,0.2621,0.2567,0.2653,0.2657,0.267,0.2492,0.2491,0.249,0.2489,0,0,0.2083,0.2109,0.2122,0.2146,0.2201,0.2233,0.23,0.2373,0.2405,0.2467,0.2526,0.2649,0.2653,0.2689,0.2707,0.2762,0.2855,0.2726,0.2727,0.2723,0.2924,0.2763,0.2761,0.2833,0.2836,0.2839,0.2883,0,0.2154,0.2227,0.2226,0.2303,0.2348,0.2359,0.2409,0.2461,0.2497,0.2547,0.2615,0.2675,0.2702,0.272,0.2792,0.2836,0.2896,0.2843,0.2855,0.2856,0.2691,0.2775,0.2576,0.2587,0.2896,0.2898,0.29,0,0.2233,0.227,0.2348,0.2377,0.2397,0.243,0.2489,0.2534,0.2595,0.2617,0.2683,0.2708,0.282,0.281,0.2945,0.2893,0.2936,0.2965,0.2966,0.2811,0.2722,0.2558,0.26,0.2472,0.292,0.2919,0.2917,0,0.2286,0.2353,0.2408,0.2427,0.2468,0.249,0.2509,0.2559,0.258,0.2647,0.2655,0.2769,0.2799,0.2895,0.2963,0.2953,0.3072,0.3057,0.2959,0.2946,0.2782,0.2748,0.2692,0.3177,0.3176,0.3176,0.3176,0,0.2366,0.2412,0.2423,0.2455,0.2492,0.2508,0.2538,0.2567,0.2596,0.2606,0.2678,0.2697,0.2821,0.2885,0.2968,0.2985,0.3077,0.2993,0.2961,0.2791,0.2759,0.2642,0.2622,0.3178,0.3178,0.3177,0.3177,0,0.2416,0.2437,0.248,0.251,0.2511,0.2529,0.2519,0.2526,0.2557,0.2568,0.2583,0.2653,0.2721,0.2823,0.2954,0.2948,0.2889,0.3001,0.2768,0.2708,0.2454,0.2444,0.2308,0.2272,0.2891,0.2888,0.2885,0,0.2446,0.2475,0.2491,0.2491,0.2497,0.2506,0.2492,0.2507,0.2499,0.2528,0.2524,0.2586,0.2602,0.2699,0.272,0.2789,0.2768,0.2623,0.2592,0.2423,0.2393,0.2314,0.2293,0.24,0.2394,0.2388,0.2384,0,0.2497,0.2489,0.2517,0.2481,0.2465,0.2445,0.2425,0.2412,0.2413,0.2412,0.2401,0.2415,0.2455,0.2392,0.2435,0.247,0.2412,0.2507,0.2417,0.2078,0.1911,0.1862,0.2371,0.2335,0.234,0.2344,0.2346,0.2348,0.2506,0.2501,0.2484,0.2437,0.242,0.235,0.2288,0.2269,0.2222,0.2157,0.2244,0.2178,0.212,0.213,0.2142,0.1944,0.2077,0.1858,0.1885,0.1839,0.1723,0.2095,0.1962,0.1964,0.1967,0.1969,0.197,0,0.2456,0.2436,0.2419,0.2337,0.2263,0.2269,0.2199,0.2106,0.1999,0.1992,0.1952,0.18,0.167,0.1636,0.1439,0.1328,0.1322,0.1283,0.116,0.12,0.1587,0.148,0.1132,0.1132,0.1132,0.1132,0.1132,0.1132,0.2429,0.2368,0.2322,0.2167,0.2111,0.1954,0.1885,0.1789,0.1742,0.1571,0.1448,0.1428,0.1289,0.1028,0.0828,0.0831,0.0803,0.0672,0.0806,0.1075,0.1131,0.1185,0.1077,0.065,0.065,0.0314,0.0311,0.0309]},{"header":{"parameterUnit":"m.s-1","parameterCategory":2,"la1":30.2991,"la2":30.254,"lo1":-89.0895,"lo2":-89.0444,"dy":0.0017,"dx":0.0017,"nx":28,"ny":28,"refTime":"2024-05-20T21:00:00:Z","depth":"0","parameterNumber":3,"parameterNumberName":"V-component_of_CURRENTS"},"data":[0,0,0,0,0,0,0,0,0,0,0,0,0,0,0,0,0,0,0,0,0,0,0,0,0,0,0,0,0,0,0,0,0,0,0,0,0,0,0,0,0,0,0,0,0,0,0,0,0,0,0,0,0,0,0,0,0,0,0.0548,0.0549,0,0.0583,0.0583,0.0583,0.0545,0.0544,0.0543,0.0541,0.0492,0.0492,0.0492,0,0,0,0,0,0,0,0,0,0,0,0,0,0.047,0.0472,0.0548,0.0549,0.0549,0.0583,0.0583,0.0584,0.0545,0.0544,0.0542,0.0541,0.0492,0.0492,0.0492,0,0,0,0,0,0,0,0,0,0,0,0,0,0.0503,0.0472,0.0548,0.0535,0.0535,0.0583,0.0583,0.0584,0.0546,0.0544,0.0542,0.054,0.0492,0.0492,0.0492,0.0531,0,0,0.0492,0.0492,0,0,0,0,0,0,0,0,0.0501,0.0506,0.0537,0.0536,0.0536,0.0559,0.0538,0.0562,0.0546,0.054,0.0541,0.0539,0.0509,0.0508,0.0518,0.0529,0.0527,0.0492,0.0492,0.0492,0.0492,0,0,0,0,0,0,0,0.0499,0.0504,0.056,0.0538,0.0537,0.0536,0.0538,0.0543,0.0533,0.054,0.0538,0.0545,0.0508,0.0518,0.0516,0.0526,0.0492,0.0492,0.0492,0.0491,0.0608,0.0611,0,0,0,0,0,0,0.0499,0.0502,0.0559,0.0562,0.0515,0.0539,0.0541,0.0552,0.0534,0.0531,0.0547,0.0543,0.0519,0.0516,0.0514,0.0604,0.0492,0.0491,0.0491,0.0605,0.0608,0.0612,0,0,0,0,0,0,0.0498,0.0504,0.0558,0.0533,0.054,0.0542,0.0555,0.0554,0.0565,0.054,0.0534,0.0559,0.0517,0.0514,0.0542,0.0599,0.0491,0.0491,0.0601,0.0606,0.061,0.0754,0,0,0,0,0,0,0.0495,0.0504,0.052,0.0534,0.0542,0.0605,0.0557,0.0556,0.0573,0.0569,0.0549,0.0542,0.0516,0.0543,0.0542,0.0597,0.0491,0.0597,0.0603,0.0609,0.0745,0.0763,0.0778,0,0,0,0,0,0.0492,0.0529,0.0521,0.0528,0.0562,0.0607,0.0612,0.0604,0.0576,0.0602,0.059,0.0543,0.0579,0.0546,0.0544,0.06,0.0594,0.0601,0.0608,0.0738,0.0759,0.0778,0,0,0,0,0,0,0.0507,0.053,0.052,0.0562,0.0588,0.0601,0.063,0.0617,0.063,0.0623,0.0582,0.0578,0.0627,0.0597,0.0561,0.0653,0.058,0.0587,0.0679,0.0699,0.0716,0.0728,0.0491,0,0,0,0,0,0.0519,0.0547,0.0569,0.0602,0.0622,0.0626,0.0643,0.0641,0.0651,0.0653,0.0642,0.0638,0.0659,0.0663,0.0673,0.0721,0.0674,0.0757,0.0774,0.0788,0.0799,0.0778,0.0793,0.0635,0.0635,0.0635,0,0,0.0532,0.0549,0.0563,0.0607,0.0625,0.0681,0.0632,0.0674,0.0719,0.0648,0.0707,0.0697,0.0686,0.0747,0.0765,0.0724,0.0812,0.0797,0.0809,0.0812,0.0787,0.0802,0.0815,0.064,0.0639,0.0638,0,0,0.0582,0.0593,0.0637,0.067,0.071,0.0727,0.0743,0.0771,0.0785,0.0842,0.0808,0.084,0.0857,0.0874,0.0881,0.0997,0.0903,0.0991,0.108,0.106,0.1072,0.1082,0.1051,0.1057,0.0994,0.0995,0.0995,0,0.0595,0.0653,0.066,0.0718,0.0753,0.0754,0.0818,0.0852,0.0884,0.0901,0.0879,0.0932,0.093,0.0998,0.1048,0.1036,0.0988,0.1003,0.108,0.1088,0.1096,0.1061,0.1066,0.1003,0.1002,0.1001,0.1,0,0.0682,0.073,0.0767,0.0838,0.0881,0.0939,0.0984,0.1025,0.1036,0.1054,0.1118,0.1125,0.114,0.1165,0.1147,0.1213,0.1149,0.1103,0.1023,0.112,0.1078,0.108,0.1014,0.1011,0.1009,0.1007,0,0,0.0713,0.0805,0.0821,0.0859,0.0946,0.0986,0.1081,0.1153,0.1186,0.1237,0.1279,0.136,0.1329,0.1336,0.1315,0.1322,0.1358,0.1242,0.1238,0.1202,0.129,0.1241,0.1237,0.1302,0.1303,0.1304,0.124,0,0.078,0.0886,0.0927,0.1036,0.1097,0.1131,0.1206,0.1265,0.1303,0.1345,0.1374,0.1407,0.1402,0.1397,0.1417,0.1362,0.1368,0.1378,0.121,0.1206,0.1142,0.1241,0.122,0.1161,0.1242,0.1242,0.1242,0,0.0864,0.092,0.1025,0.1109,0.1138,0.1198,0.1284,0.1349,0.1416,0.1435,0.1479,0.1473,0.1526,0.1483,0.1467,0.1459,0.1399,0.1358,0.1352,0.1257,0.1162,0.1077,0.116,0.1134,0.1244,0.1244,0.1244,0,0.0876,0.0993,0.1066,0.1102,0.1202,0.1241,0.1291,0.1366,0.141,0.1472,0.149,0.1536,0.1534,0.1501,0.1452,0.144,0.1396,0.1354,0.1261,0.1254,0.1183,0.1169,0.1213,0.1338,0.1338,0.1338,0.1339,0,0.0935,0.0996,0.1065,0.1108,0.1175,0.1239,0.1306,0.1358,0.142,0.1468,0.1514,0.1546,0.1532,0.1511,0.146,0.1375,0.1397,0.13,0.1248,0.1234,0.1226,0.1152,0.1154,0.1336,0.1337,0.1337,0.1337,0,0.094,0.0997,0.1071,0.1157,0.1182,0.122,0.1299,0.1343,0.1401,0.1459,0.1477,0.1538,0.1519,0.1492,0.1425,0.1367,0.1279,0.1251,0.1238,0.1187,0.1079,0.109,0.1076,0.1082,0.1146,0.1145,0.1143,0,0.0951,0.0992,0.1075,0.1105,0.1141,0.12,0.1243,0.1321,0.137,0.1456,0.1483,0.1496,0.1521,0.1424,0.1336,0.1239,0.1225,0.1125,0.1125,0.1098,0.1073,0.1087,0.1096,0.1084,0.1082,0.1081,0.108,0,0.0964,0.0984,0.1035,0.1085,0.1132,0.1189,0.1255,0.1289,0.138,0.1431,0.1488,0.1513,0.1454,0.1374,0.1248,0.1175,0.1128,0.1093,0.1075,0.1055,0.1065,0.1035,0.1091,0.1069,0.107,0.1071,0.1071,0.1072,0.0955,0.0974,0.1028,0.1068,0.112,0.1174,0.1204,0.1277,0.1344,0.1418,0.1466,0.1495,0.1404,0.1253,0.116,0.0985,0.1043,0.0929,0.095,0.097,0.0981,0.1015,0.0927,0.0928,0.0928,0.0928,0.0928,0,0.0943,0.0973,0.1012,0.1066,0.1095,0.1136,0.1212,0.1236,0.1292,0.1385,0.1433,0.1394,0.1287,0.1161,0.0957,0.0865,0.0861,0.0823,0.0857,0.0876,0.09,0.0902,0.0795,0.0795,0.0795,0.0795,0.0795,0.0795,0.0946,0.0971,0.0986,0.1026,0.1059,0.1091,0.1123,0.1164,0.1231,0.1272,0.1291,0.1327,0.1242,0.1018,0.0846,0.0803,0.0805,0.0769,0.0796,0.0817,0.0829,0.0841,0.0845,0.0727,0.0727,0.0771,0.0771,0.0771]}],[{"header":{"parameterUnit":"m.s-1","parameterCategory":2,"la1":30.2991,"la2":30.254,"lo1":-89.0895,"lo2":-89.0444,"dy":0.0017,"dx":0.0017,"nx":28,"ny":28,"refTime":"2024-05-20T21:00:00:Z","depth":"2","parameterNumber":2,"parameterNumberName":"U-component_of_CURRENTS"},"data":[0,0,0,0,0,0,0,0,0,0,0,0,0,0,0,0,0,0,0,0,0,0,0,0,0,0,0,0,0,0,0,0,0,0,0,0,0,0,0,0,0,0,0,0,0,0,0,0,0,0,0,0,0,0,0,0,0,0,0.1831,0.1833,0,0.1918,0.1919,0.1919,0.1955,0.1955,0.1956,0.1956,0.2061,0.2064,0.2066,0,0,0,0,0,0,0,0,0,0,0,0,0,0.1714,0.1715,0.1831,0.1833,0.1835,0.1918,0.1919,0.1919,0.1955,0.1955,0.1956,0.1956,0.2061,0.2063,0.2066,0,0,0,0,0,0,0,0,0,0,0,0,0,0.1772,0.1716,0.1831,0.1868,0.1873,0.1918,0.1919,0.1919,0.1955,0.1955,0.1956,0.1957,0.206,0.2063,0.2067,0.2074,0,0,0.2077,0.2079,0,0,0,0,0,0,0,0,0.1769,0.1776,0.1861,0.1865,0.1871,0.1933,0.1917,0.1975,0.1954,0.1916,0.1956,0.1957,0.2024,0.2031,0.2035,0.2079,0.2083,0.2078,0.208,0.2081,0.2082,0,0,0,0,0,0,0,0.1765,0.1772,0.1858,0.1863,0.1869,0.1887,0.1895,0.1927,0.1959,0.1919,0.1924,0.1945,0.2026,0.2031,0.2038,0.2085,0.2077,0.2081,0.2083,0.2084,0.2251,0.2253,0,0,0,0,0,0,0.1767,0.1768,0.1856,0.1862,0.1829,0.1889,0.1898,0.1906,0.1959,0.197,0.1944,0.1947,0.2025,0.2034,0.2042,0.2149,0.2081,0.2084,0.2087,0.2249,0.2252,0.2254,0,0,0,0,0,0,0.1764,0.1774,0.1852,0.1824,0.1836,0.1891,0.19,0.1908,0.1922,0.1979,0.1989,0.1953,0.2026,0.2037,0.2113,0.215,0.2086,0.2089,0.2246,0.225,0.2253,0.2302,0,0,0,0,0,0,0.176,0.1771,0.1774,0.1823,0.1838,0.1875,0.19,0.1909,0.1938,0.1941,0.199,0.2,0.2027,0.2108,0.2116,0.2153,0.2092,0.2243,0.2248,0.2252,0.2298,0.2307,0.2315,0,0,0,0,0,0.1755,0.1756,0.1773,0.1785,0.184,0.1875,0.1883,0.192,0.1937,0.1936,0.2005,0.1998,0.2141,0.2113,0.2122,0.2161,0.2241,0.2246,0.2251,0.2294,0.2305,0.2315,0,0,0,0,0,0,0.1705,0.1762,0.1782,0.1799,0.1835,0.1884,0.1894,0.192,0.1968,0.1985,0.203,0.2046,0.2132,0.2137,0.2105,0.2224,0.2189,0.2196,0.2218,0.2229,0.2237,0.2248,0.2095,0,0,0,0,0,0.1697,0.1721,0.1767,0.1788,0.1797,0.1844,0.1864,0.1895,0.195,0.197,0.2028,0.2091,0.2157,0.2185,0.2243,0.2295,0.229,0.2327,0.2336,0.2343,0.236,0.2393,0.2406,0.2271,0.2271,0.2271,0,0,0.1695,0.1726,0.1744,0.1781,0.1808,0.1856,0.1855,0.1891,0.1959,0.1976,0.2086,0.2128,0.2183,0.2266,0.2301,0.2274,0.2375,0.2349,0.2355,0.2369,0.24,0.2413,0.2424,0.2275,0.2274,0.2274,0,0,0.1717,0.1714,0.1749,0.1775,0.1826,0.1857,0.1868,0.1932,0.1975,0.2072,0.2122,0.2191,0.2281,0.2338,0.2373,0.2458,0.2429,0.2466,0.2508,0.254,0.2551,0.256,0.2545,0.2553,0.2458,0.2458,0.2458,0,0.1732,0.1758,0.1763,0.1805,0.183,0.1863,0.1903,0.1964,0.2063,0.2102,0.2118,0.2281,0.2324,0.2426,0.2471,0.2478,0.2472,0.246,0.2549,0.2559,0.2568,0.255,0.2558,0.2461,0.2461,0.246,0.246,0,0.1768,0.1806,0.182,0.1892,0.1909,0.1943,0.2013,0.2071,0.2127,0.2189,0.2303,0.2377,0.246,0.2489,0.2515,0.2604,0.257,0.2562,0.2516,0.2584,0.2561,0.2569,0.2465,0.2464,0.2463,0.2463,0,0,0.1821,0.1844,0.186,0.1893,0.1946,0.1973,0.2067,0.2143,0.2224,0.2315,0.24,0.253,0.2547,0.2591,0.2623,0.2662,0.2719,0.2643,0.2643,0.2615,0.2757,0.255,0.2538,0.2722,0.2724,0.2726,0.2705,0,0.1872,0.1914,0.1922,0.2008,0.2038,0.207,0.216,0.2237,0.2311,0.2412,0.2473,0.258,0.2593,0.2638,0.2682,0.2724,0.2746,0.2724,0.2707,0.2706,0.2505,0.2543,0.2348,0.2297,0.2712,0.2713,0.2714,0,0.1931,0.195,0.1987,0.2057,0.2071,0.2144,0.2234,0.2326,0.2448,0.25,0.2579,0.2624,0.2716,0.2712,0.2794,0.2775,0.2778,0.2793,0.2791,0.2591,0.2515,0.2304,0.2295,0.2726,0.2725,0.2724,0.2723,0,0.1933,0.2017,0.2026,0.2047,0.2128,0.218,0.2248,0.2362,0.2429,0.2566,0.2595,0.2702,0.2748,0.2793,0.2811,0.2812,0.2865,0.2858,0.2668,0.2652,0.2479,0.2441,0.2908,0.2908,0.2908,0.2908,0.2908,0,0.1945,0.1991,0.2049,0.2059,0.2153,0.2208,0.232,0.2407,0.2509,0.2576,0.2649,0.2702,0.2775,0.2795,0.2819,0.2743,0.2861,0.2679,0.264,0.2484,0.245,0.2824,0.2815,0.2907,0.2908,0.2908,0.2908,0,0.1938,0.1942,0.2025,0.2115,0.2153,0.2237,0.2347,0.2429,0.252,0.2599,0.2628,0.2704,0.2719,0.2735,0.2793,0.2712,0.2697,0.2641,0.2421,0.2354,0.2458,0.2453,0.2422,0.2414,0.2408,0.2403,0.2399,0,0.1906,0.1949,0.207,0.2118,0.2167,0.2281,0.2352,0.2447,0.2507,0.2595,0.2618,0.2639,0.2604,0.2556,0.2459,0.2376,0.2547,0.2147,0.211,0.2447,0.2413,0.2417,0.2419,0.1907,0.1899,0.1892,0.1887,0,0.1913,0.1987,0.2034,0.214,0.222,0.2288,0.2387,0.2402,0.2493,0.2511,0.2526,0.249,0.2382,0.2176,0.2025,0.1984,0.2137,0.2001,0.2448,0.2032,0.1951,0.1921,0.1943,0.1828,0.1834,0.1839,0.1842,0.1844,0.1951,0.2008,0.2083,0.2177,0.2249,0.2269,0.2273,0.232,0.2325,0.224,0.2303,0.2108,0.2019,0.1625,0.1571,0.1535,0.168,0.1629,0.1655,0.1687,0.1603,0.1513,0.1291,0.1293,0.1296,0.1298,0.13,0,0.1962,0.2018,0.2108,0.2167,0.2191,0.2247,0.2266,0.2194,0.2121,0.198,0.1867,0.1486,0.1272,0.1261,0.1075,0.1015,0.1079,0.1018,0.1122,0.1176,0.1226,0.1126,0.0684,0.0683,0.0681,0.068,0,0,0.1957,0.2001,0.2034,0.2059,0.2112,0.2064,0.2033,0.1923,0.1784,0.1472,0.1256,0.1087,0.1113,0.0822,0.0798,0.0736,0.0962,0.07,0.1184,0.1357,0.1406,0.1553,0.1455,0,0,0,0,0]},{"header":{"parameterUnit":"m.s-1","parameterCategory":2,"la1":30.2991,"la2":30.254,"lo1":-89.0895,"lo2":-89.0444,"dy":0.0017,"dx":0.0017,"nx":28,"ny":28,"refTime":"2024-05-20T21:00:00:Z","depth":"2","parameterNumber":3,"parameterNumberName":"V-component_of_CURRENTS"},"data":[0,0,0,0,0,0,0,0,0,0,0,0,0,0,0,0,0,0,0,0,0,0,0,0,0,0,0,0,0,0,0,0,0,0,0,0,0,0,0,0,0,0,0,0,0,0,0,0,0,0,0,0,0,0,0,0,0,0,0.0203,0.0203,0,0.0196,0.0196,0.0196,0.0194,0.0194,0.0194,0.0194,0.018,0.0179,0.0179,0,0,0,0,0,0,0,0,0,0,0,0,0,0.0186,0.0186,0.0203,0.0203,0.0203,0.0196,0.0196,0.0196,0.0194,0.0194,0.0194,0.0194,0.018,0.0179,0.0179,0,0,0,0,0,0,0,0,0,0,0,0,0,0.0187,0.0186,0.0203,0.0201,0.0201,0.0196,0.0196,0.0196,0.0194,0.0194,0.0194,0.0194,0.018,0.0179,0.0179,0.0172,0,0,0.0177,0.0176,0,0,0,0,0,0,0,0,0.0187,0.0188,0.0201,0.0201,0.0201,0.0196,0.0185,0.0188,0.0194,0.0196,0.0194,0.0194,0.0185,0.0184,0.0182,0.0171,0.0171,0.0176,0.0176,0.0176,0.0176,0,0,0,0,0,0,0,0.0187,0.0188,0.0199,0.0201,0.0201,0.0192,0.0192,0.0185,0.0189,0.0196,0.0196,0.0196,0.0185,0.0182,0.0181,0.017,0.0176,0.0176,0.0175,0.0175,0.0214,0.0215,0,0,0,0,0,0,0.019,0.0188,0.02,0.0199,0.0195,0.0192,0.0192,0.0197,0.0189,0.0189,0.0196,0.0196,0.0183,0.0182,0.0181,0.0232,0.0176,0.0175,0.0175,0.0212,0.0214,0.0216,0,0,0,0,0,0,0.019,0.0192,0.02,0.0194,0.0194,0.0192,0.0198,0.0197,0.02,0.019,0.0189,0.02,0.0183,0.0182,0.0202,0.0229,0.0175,0.0174,0.0211,0.0213,0.0215,0.0297,0,0,0,0,0,0,0.019,0.0192,0.0197,0.0194,0.0195,0.0193,0.0198,0.0197,0.02,0.02,0.0192,0.0191,0.0183,0.0203,0.0201,0.0228,0.0174,0.0209,0.0212,0.0214,0.0293,0.0302,0.031,0,0,0,0,0,0.0189,0.0187,0.0197,0.0199,0.0202,0.0192,0.0191,0.019,0.02,0.0195,0.0215,0.0191,0.0219,0.0204,0.0201,0.0228,0.0207,0.0211,0.0214,0.0289,0.03,0.031,0,0,0,0,0,0,0.0173,0.0187,0.0198,0.0199,0.0197,0.0192,0.0192,0.0194,0.0204,0.0219,0.021,0.021,0.0241,0.0221,0.0205,0.0247,0.0209,0.0211,0.0266,0.0277,0.0285,0.0293,0.0173,0,0,0,0,0,0.0176,0.0192,0.019,0.0197,0.0196,0.0199,0.0197,0.0202,0.021,0.0215,0.0219,0.0231,0.0251,0.0253,0.0261,0.0277,0.0228,0.0292,0.0301,0.0308,0.0313,0.0279,0.0285,0.0226,0.0226,0.0226,0,0,0.0174,0.0186,0.0194,0.0197,0.0201,0.0219,0.0198,0.0204,0.0228,0.0212,0.0252,0.0262,0.0264,0.0297,0.0307,0.0283,0.0294,0.0312,0.0319,0.032,0.0283,0.0288,0.0293,0.0228,0.0228,0.0228,0,0,0.0183,0.0188,0.0206,0.0216,0.0229,0.0232,0.0236,0.0243,0.0249,0.0289,0.0294,0.0316,0.0342,0.0345,0.0353,0.0406,0.0346,0.0415,0.0459,0.0426,0.043,0.0433,0.0354,0.0349,0.0413,0.0413,0.0413,0,0.0185,0.0195,0.0205,0.0232,0.0225,0.0245,0.0245,0.0277,0.0296,0.0292,0.0315,0.037,0.0365,0.0401,0.0435,0.0424,0.0386,0.0421,0.0436,0.0438,0.044,0.0358,0.0352,0.0418,0.0417,0.0417,0.0416,0,0.0209,0.0221,0.0228,0.0274,0.0275,0.0274,0.0307,0.0333,0.0355,0.037,0.0412,0.044,0.0464,0.0475,0.0482,0.0502,0.0463,0.0455,0.0408,0.0451,0.0361,0.0353,0.0424,0.0422,0.0421,0.042,0,0,0.0194,0.023,0.0234,0.0239,0.0278,0.0277,0.0332,0.0336,0.0377,0.0428,0.0451,0.0515,0.0533,0.0544,0.0556,0.0543,0.0519,0.0521,0.0517,0.0437,0.0419,0.0447,0.044,0.0525,0.0524,0.0524,0.0341,0,0.0194,0.0206,0.0232,0.0254,0.0245,0.0281,0.0327,0.0361,0.0403,0.0452,0.0482,0.0544,0.0561,0.0605,0.0594,0.0559,0.0508,0.0567,0.0394,0.0387,0.0405,0.0437,0.0458,0.0304,0.0333,0.0332,0.0331,0,0.0205,0.0195,0.0183,0.0204,0.0205,0.0254,0.0289,0.0345,0.0427,0.0463,0.0533,0.0579,0.0615,0.0623,0.0561,0.0608,0.0516,0.0468,0.0459,0.0455,0.0404,0.0272,0.0288,0.0316,0.0318,0.0319,0.0319,0,0.0143,0.0167,0.0131,0.0142,0.0186,0.0206,0.0257,0.0341,0.0395,0.0504,0.0572,0.0601,0.0661,0.0584,0.0525,0.0546,0.0415,0.041,0.0321,0.0318,0.0287,0.0284,0.0309,0.0309,0.0309,0.031,0.031,0,0.0107,0.0092,0.0116,0.0105,0.0122,0.0177,0.0247,0.0318,0.043,0.052,0.0603,0.0676,0.0667,0.0617,0.051,0.0408,0.0389,0.0332,0.0291,0.0315,0.0317,0.0298,0.0299,0.0303,0.0304,0.0306,0.0307,0,0.0055,0.0056,0.0042,0.007,0.0101,0.0132,0.0272,0.0357,0.0464,0.0595,0.0648,0.0727,0.0691,0.0612,0.047,0.0414,0.0281,0.0214,0.0233,0.0202,0.0195,0.0202,0.012,0.012,0.012,0.0119,0.0119,0,0.0021,0.0006,0.0029,0.0066,0.0095,0.017,0.0264,0.0374,0.047,0.0624,0.0681,0.0707,0.0727,0.0539,0.0425,0.0234,0.0204,0.0145,0.0209,0.0216,0.0183,0.0191,0.0198,0.0159,0.0159,0.0159,0.0159,0,-0.0031,-0.0013,-0.0018,0.0056,0.0142,0.0231,0.0359,0.041,0.0566,0.0649,0.0714,0.0733,0.0657,0.0535,0.036,0.0237,0.0204,0.0147,0.0131,0.0241,0.0249,0.0219,0.0225,0.0161,0.0161,0.0161,0.0161,0.0161,-0.0039,-0.0042,-0.0008,0.0066,0.018,0.0294,0.0364,0.0473,0.0562,0.0704,0.0696,0.0736,0.067,0.0458,0.0314,0.019,0.0186,0.0148,0.0148,0.0147,0.0223,0.0236,0.0153,0.0153,0.0153,0.0153,0.0153,0,-0.004,-0.0026,0.0028,0.0109,0.0234,0.0322,0.0449,0.0489,0.0569,0.0684,0.0736,0.0635,0.0563,0.0448,0.0289,0.0208,0.0197,0.0164,0.0175,0.0174,0.0173,0.0251,0.0187,0.0187,0.0187,0.0187,0,0,-0.003,-0.0012,0.0005,0.0148,0.0262,0.042,0.05,0.0515,0.0561,0.0607,0.0657,0.0729,0.0597,0.0487,0.0367,0.0281,0.0245,0.0257,0.0237,0.0264,0.0264,0.017,0.029,0,0,0,0,0]}],[{"header":{"parameterUnit":"m.s-1","parameterCategory":2,"la1":30.2991,"la2":30.254,"lo1":-89.0895,"lo2":-89.0444,"dy":0.0017,"dx":0.0017,"nx":28,"ny":28,"refTime":"2024-05-20T21:00:00:Z","depth":"4","parameterNumber":2,"parameterNumberName":"U-component_of_CURRENTS"},"data":[0,0,0,0,0,0,0,0,0,0,0,0,0,0,0,0,0,0,0,0,0,0,0,0,0,0,0,0,0,0,0,0,0,0,0,0,0,0,0,0,0,0,0,0,0,0,0,0,0,0,0,0,0,0,0,0,0,0,0.0614,0.0614,0,0.0581,0.058,0.058,0.0592,0.0594,0.0595,0.0596,0.0487,0.0484,0.048,0,0,0,0,0,0,0,0,0,0,0,0,0,0.0709,0.0707,0.0614,0.0614,0.0614,0.0581,0.058,0.058,0.0592,0.0594,0.0595,0.0596,0.0489,0.0484,0.0479,0,0,0,0,0,0,0,0,0,0,0,0,0,0.0668,0.0706,0.0614,0.0619,0.0619,0.0581,0.058,0.0579,0.0592,0.0594,0.0595,0.0597,0.049,0.0484,0.0479,0.041,0,0,0.0461,0.0458,0,0,0,0,0,0,0,0,0.067,0.0664,0.0618,0.0618,0.0619,0.0596,0.0575,0.052,0.0592,0.0599,0.0596,0.0598,0.0517,0.051,0.0496,0.0405,0.0401,0.046,0.0457,0.0454,0.0453,0,0,0,0,0,0,0,0.0673,0.0666,0.0598,0.0618,0.0618,0.063,0.0625,0.0564,0.0545,0.0598,0.06,0.0601,0.0517,0.0502,0.0493,0.0399,0.0461,0.0455,0.0452,0.0449,0.0404,0.0407,0,0,0,0,0,0,0.0681,0.0668,0.0599,0.0597,0.0653,0.0627,0.0622,0.0599,0.0548,0.0543,0.06,0.0602,0.0511,0.05,0.0489,0.0488,0.0454,0.0449,0.0446,0.0402,0.0405,0.0407,0,0,0,0,0,0,0.0682,0.0674,0.06,0.0636,0.0628,0.0624,0.0598,0.0597,0.0623,0.055,0.0544,0.0632,0.0512,0.0498,0.0477,0.0481,0.0446,0.0441,0.0399,0.0403,0.0406,0.0432,0,0,0,0,0,0,0.0685,0.0674,0.0678,0.0636,0.0627,0.0596,0.0597,0.0595,0.0621,0.0624,0.0574,0.0564,0.0512,0.0486,0.0471,0.0473,0.0436,0.0396,0.0401,0.0405,0.0428,0.0436,0.0443,0,0,0,0,0,0.0688,0.0687,0.0677,0.0671,0.0625,0.0596,0.0593,0.0594,0.0621,0.0626,0.061,0.0568,0.0504,0.0482,0.0464,0.0464,0.0394,0.04,0.0405,0.0425,0.0435,0.0443,0,0,0,0,0,0,0.073,0.0687,0.0676,0.0662,0.0639,0.0601,0.0616,0.0618,0.061,0.0628,0.0573,0.056,0.055,0.0517,0.0494,0.0476,0.0451,0.0453,0.0474,0.0482,0.0489,0.0494,0.0432,0,0,0,0,0,0.0738,0.0731,0.0685,0.0679,0.0672,0.0653,0.0653,0.0649,0.063,0.0632,0.0568,0.0548,0.0549,0.0527,0.0496,0.0462,0.0444,0.0465,0.0473,0.0478,0.0478,0.0467,0.0472,0.0424,0.0424,0.0424,0,0,0.0755,0.0732,0.0729,0.0689,0.0677,0.0652,0.0657,0.0664,0.0646,0.0616,0.0563,0.056,0.0554,0.0528,0.0521,0.0499,0.0487,0.0485,0.0489,0.0486,0.0473,0.0477,0.0481,0.0428,0.0427,0.0427,0,0,0.0771,0.0762,0.0754,0.0734,0.0719,0.0693,0.0706,0.0654,0.0646,0.062,0.0607,0.0605,0.0564,0.0536,0.0541,0.0571,0.0534,0.0586,0.06,0.059,0.0592,0.0594,0.0584,0.0585,0.0577,0.0577,0.0577,0,0.0795,0.0755,0.0752,0.0733,0.0712,0.0715,0.0687,0.0679,0.0618,0.0599,0.062,0.0598,0.057,0.0572,0.0595,0.0578,0.0581,0.0558,0.0594,0.0596,0.0597,0.0586,0.0587,0.0579,0.0579,0.0579,0.0578,0,0.0782,0.076,0.076,0.072,0.0706,0.0688,0.0662,0.0638,0.0644,0.0619,0.0624,0.0609,0.0596,0.0605,0.0615,0.0618,0.0621,0.0608,0.056,0.0603,0.059,0.059,0.0582,0.0581,0.058,0.058,0,0,0.0773,0.0751,0.0745,0.0722,0.0691,0.0671,0.0654,0.0612,0.0617,0.0598,0.0588,0.0614,0.0619,0.0628,0.0627,0.0628,0.064,0.0636,0.0634,0.0604,0.0634,0.0607,0.0604,0.0643,0.0643,0.0643,0.0621,0,0.0746,0.0707,0.0697,0.0654,0.0619,0.0615,0.0588,0.0573,0.0584,0.0563,0.0598,0.0613,0.0629,0.0657,0.0653,0.0651,0.0643,0.0648,0.0616,0.0615,0.0567,0.0604,0.0644,0.0621,0.0621,0.0621,0.0621,0,0.0696,0.0675,0.0628,0.0593,0.058,0.0567,0.054,0.0522,0.0527,0.0553,0.0588,0.0617,0.0631,0.0654,0.0653,0.0667,0.0655,0.0654,0.0652,0.0615,0.0588,0.0571,0.062,0.062,0.062,0.062,0.062,0,0.0643,0.0612,0.0573,0.0559,0.053,0.0522,0.0512,0.0512,0.0518,0.0561,0.0601,0.0617,0.066,0.065,0.066,0.0668,0.0659,0.0647,0.0604,0.0602,0.0616,0.0614,0.0634,0.0634,0.0634,0.0634,0.0634,0,0.0572,0.0544,0.056,0.0532,0.0504,0.0499,0.0495,0.05,0.0534,0.0546,0.06,0.0632,0.0674,0.0677,0.0657,0.0635,0.0646,0.0613,0.0596,0.0632,0.0632,0.0616,0.0614,0.0633,0.0633,0.0633,0.0634,0,0.0499,0.051,0.0473,0.0467,0.0474,0.0459,0.0498,0.0502,0.0553,0.058,0.0609,0.0664,0.0683,0.0691,0.0681,0.0644,0.0611,0.0591,0.0634,0.0619,0.0561,0.0561,0.0543,0.0542,0.0541,0.054,0.0539,0,0.046,0.043,0.043,0.0435,0.044,0.0449,0.0449,0.0501,0.0513,0.0583,0.0575,0.0645,0.0669,0.0627,0.0637,0.0599,0.0587,0.0563,0.0566,0.0567,0.0552,0.0554,0.0555,0.0538,0.0538,0.0537,0.0537,0,0.0385,0.0393,0.0373,0.0375,0.0393,0.0401,0.0413,0.0427,0.0476,0.0543,0.0558,0.0584,0.0599,0.0602,0.0596,0.0555,0.0577,0.0553,0.0555,0.0557,0.0561,0.0547,0.055,0.0534,0.0534,0.0535,0.0535,0,0.0353,0.0332,0.0325,0.0326,0.0342,0.0336,0.0355,0.0371,0.0402,0.0477,0.0474,0.0529,0.0588,0.0576,0.0544,0.0538,0.0528,0.0497,0.0501,0.0505,0.0505,0.0505,0.0448,0,0,0,0,0,0.0313,0.0294,0.0284,0.0277,0.028,0.0297,0.0315,0.0338,0.0393,0.039,0.0441,0.0451,0.0476,0.0491,0.0476,0.0513,0.0516,0.0491,0.0478,0.0516,0.052,0.0524,0,0,0,0,0,0,0.0304,0.0282,0.0268,0.0239,0.0225,0.0229,0.0246,0.0279,0.0275,0.034,0.035,0.0417,0.0435,0.0487,0.0469,0.0473,0.0452,0.0526,0.0524,0.0514,0.0517,0.052,0.0526,0,0,0,0,0]},{"header":{"parameterUnit":"m.s-1","parameterCategory":2,"la1":30.2991,"la2":30.254,"lo1":-89.0895,"lo2":-89.0444,"dy":0.0017,"dx":0.0017,"nx":28,"ny":28,"refTime":"2024-05-20T21:00:00:Z","depth":"4","parameterNumber":3,"parameterNumberName":"V-component_of_CURRENTS"},"data":[0,0,0,0,0,0,0,0,0,0,0,0,0,0,0,0,0,0,0,0,0,0,0,0,0,0,0,0,0,0,0,0,0,0,0,0,0,0,0,0,0,0,0,0,0,0,0,0,0,0,0,0,0,0,0,0,0,0,0.0007,0.0007,0,-0.0014,-0.0014,-0.0014,-0.0022,-0.0022,-0.0022,-0.0022,-0.0018,-0.0018,-0.0018,0,0,0,0,0,0,0,0,0,0,0,0,0,0.0037,0.0036,0.0007,0.0007,0.0006,-0.0014,-0.0014,-0.0015,-0.0022,-0.0022,-0.0022,-0.0022,-0.0018,-0.0018,-0.0018,0,0,0,0,0,0,0,0,0,0,0,0,0,0.0022,0.0036,0.0007,-0.0001,-0.0002,-0.0014,-0.0014,-0.0015,-0.0022,-0.0022,-0.0022,-0.0022,-0.0019,-0.0018,-0.0018,-0.0015,0,0,-0.0017,-0.0017,0,0,0,0,0,0,0,0,0.0023,0.0021,0.0001,-0.0001,-0.0002,-0.0017,-0.0003,-0.0014,-0.0022,-0.0013,-0.0022,-0.0022,-0.0016,-0.0016,-0.0019,-0.0015,-0.0015,-0.0017,-0.0017,-0.0017,-0.0017,0,0,0,0,0,0,0,0.0024,0.0022,0.0,0.0,-0.0001,-0.0005,-0.0007,-0.0005,-0.0012,-0.0014,-0.0015,-0.0019,-0.0017,-0.0019,-0.0018,-0.0015,-0.0017,-0.0017,-0.0017,-0.0017,-0.0111,-0.0114,0,0,0,0,0,0,0.0024,0.0023,0.0001,-0.0001,0.0009,-0.0006,-0.0008,-0.0011,-0.0013,-0.0014,-0.0019,-0.002,-0.0019,-0.0019,-0.0018,-0.0079,-0.0017,-0.0017,-0.0017,-0.0109,-0.0112,-0.0115,0,0,0,0,0,0,0.0025,0.0022,0.0001,0.0009,0.0006,-0.0006,-0.0009,-0.0011,-0.0016,-0.0018,-0.0018,-0.0023,-0.0019,-0.0019,-0.0048,-0.0076,-0.0017,-0.0017,-0.0106,-0.011,-0.0113,-0.0158,0,0,0,0,0,0,0.0026,0.0023,0.0023,0.0009,0.0006,-0.0014,-0.0009,-0.0012,-0.002,-0.002,-0.0021,-0.0021,-0.0019,-0.0048,-0.0047,-0.0075,-0.0017,-0.0102,-0.0108,-0.0112,-0.0154,-0.0163,-0.0172,0,0,0,0,0,0.0027,0.0016,0.0023,0.002,0.0006,-0.0015,-0.0017,-0.0025,-0.002,-0.0028,-0.0046,-0.0021,-0.008,-0.005,-0.0048,-0.0076,-0.01,-0.0106,-0.0112,-0.0149,-0.0161,-0.0172,0,0,0,0,0,0,0.0019,0.0014,0.0021,0.0008,-0.0002,-0.0017,-0.0025,-0.0026,-0.0044,-0.0043,-0.0043,-0.0045,-0.009,-0.008,-0.0048,-0.0125,-0.009,-0.0096,-0.0119,-0.013,-0.0139,-0.0075,-0.0016,0,0,0,0,0,0.0022,0.0019,0.0009,-0.0,-0.0005,-0.0011,-0.0018,-0.0021,-0.0039,-0.0046,-0.0052,-0.0073,-0.0113,-0.0118,-0.0144,-0.0166,-0.0125,-0.0191,-0.02,-0.0207,-0.0158,-0.015,-0.0152,-0.0134,-0.0134,-0.0134,0,0,0.0015,0.0013,0.001,-0.0,-0.0006,-0.0014,-0.0016,-0.0029,-0.0036,-0.0042,-0.0061,-0.0102,-0.0131,-0.0178,-0.0196,-0.0169,-0.0199,-0.0215,-0.022,-0.0166,-0.0156,-0.0157,-0.0158,-0.0138,-0.0138,-0.0137,0,0,0.0001,0.0001,-0.0003,-0.001,-0.0016,-0.0021,-0.0024,-0.0039,-0.0047,-0.0074,-0.0103,-0.0148,-0.0186,-0.0217,-0.0238,-0.0306,-0.0257,-0.0338,-0.0312,-0.0307,-0.0307,-0.0305,-0.0275,-0.027,-0.033,-0.033,-0.0331,0,-0.0006,-0.0003,-0.001,-0.0015,-0.0011,-0.0023,-0.0021,-0.004,-0.0064,-0.0061,-0.0085,-0.0159,-0.0198,-0.0244,-0.029,-0.0319,-0.0298,-0.0266,-0.0313,-0.0311,-0.0309,-0.0277,-0.0272,-0.0333,-0.0333,-0.0333,-0.0332,0,-0.0016,-0.0014,-0.0021,-0.0019,-0.0021,-0.0025,-0.004,-0.0049,-0.006,-0.007,-0.0115,-0.018,-0.0204,-0.0265,-0.03,-0.0327,-0.0313,-0.0333,-0.027,-0.0312,-0.0278,-0.0272,-0.0337,-0.0336,-0.0336,-0.0335,0,0,-0.0031,-0.0024,-0.0027,-0.0003,-0.0013,-0.0009,-0.0026,-0.0025,-0.0011,-0.0065,-0.0053,-0.0169,-0.018,-0.0205,-0.0267,-0.0282,-0.0292,-0.0302,-0.03,-0.0242,-0.0258,-0.028,-0.0274,-0.0323,-0.0322,-0.0321,-0.0246,0,-0.003,-0.0019,-0.002,0.0,0.0015,0.0013,0.001,0.0008,-0.0006,-0.0006,-0.0067,-0.0097,-0.0166,-0.0191,-0.0218,-0.028,-0.0273,-0.0308,-0.0248,-0.0244,-0.0236,-0.0267,-0.0318,-0.024,-0.0239,-0.0237,-0.0236,0,-0.003,-0.0015,0.0008,0.0053,0.006,0.0066,0.0102,0.0097,0.0084,0.0075,0.005,0.0007,-0.0041,-0.0096,-0.0143,-0.0164,-0.0192,-0.0233,-0.0231,-0.0212,-0.0253,-0.0188,-0.0223,-0.0224,-0.0225,-0.0226,-0.0227,0,-0.0004,0.0013,0.0048,0.0056,0.0085,0.0107,0.0123,0.0127,0.0144,0.0134,0.0142,0.0096,0.0067,0.0026,-0.0074,-0.0099,-0.0112,-0.0151,-0.0178,-0.0179,-0.0155,-0.0157,-0.0137,-0.0137,-0.0137,-0.0138,-0.0138,0,0.0014,0.0042,0.0067,0.0086,0.0141,0.0151,0.0203,0.0207,0.0223,0.0244,0.0193,0.0185,0.0093,0.0055,-0.0017,-0.0075,-0.0054,-0.0146,-0.0158,-0.0184,-0.019,-0.0151,-0.0154,-0.0135,-0.0135,-0.0136,-0.0136,0,0.004,0.0051,0.0099,0.0139,0.0156,0.0198,0.0253,0.0283,0.0293,0.0318,0.0317,0.0267,0.0208,0.0129,0.0054,-0.0002,-0.0058,-0.0076,-0.0069,-0.0086,-0.0131,-0.0137,-0.0069,-0.0069,-0.007,-0.007,-0.007,0,0.0055,0.0079,0.0135,0.0164,0.0184,0.0241,0.0275,0.0311,0.0336,0.0353,0.0358,0.032,0.0269,0.0175,0.0078,-0.0004,-0.0041,-0.0038,-0.0106,-0.0103,-0.0122,-0.0129,-0.0135,-0.007,-0.007,-0.007,-0.007,0,0.0083,0.0102,0.0136,0.019,0.0236,0.0293,0.0339,0.0364,0.0394,0.0413,0.0394,0.0337,0.0276,0.0172,0.0111,0.0035,-0.0029,-0.0039,-0.004,-0.0104,-0.0103,-0.0123,-0.0129,-0.007,-0.007,-0.007,-0.007,0,0.0098,0.0123,0.0158,0.0212,0.027,0.0314,0.0345,0.0371,0.0406,0.0419,0.0409,0.0339,0.0304,0.0194,0.0127,0.006,0.0031,0.0006,0.0002,0.0002,-0.0029,-0.0021,0.0051,0,0,0,0,0,0.0112,0.0131,0.0172,0.0227,0.0285,0.0314,0.0371,0.0392,0.0422,0.0415,0.0418,0.0355,0.0252,0.02,0.0131,0.011,0.0012,0.0026,-0.002,-0.0072,-0.0071,-0.0126,0,0,0,0,0,0,0.0116,0.015,0.0166,0.0228,0.026,0.0321,0.0354,0.0374,0.037,0.0386,0.0328,0.033,0.0222,0.0284,0.0123,0.0104,0.0065,-0.0015,-0.0016,-0.0072,-0.0072,-0.0071,-0.0128,0,0,0,0,0]}]]